Home   Weather   Kraków   Past weeks

Flag for Poland Past Weather in Kraków, Poland — Yesterday and Last 2 Weeks

Now
32 °F

Overcast.


Feels Like: 26 °F
Forecast: 18 / 30 °F
Wind: 6 mph from East

Location: Krakow Airport

Current Time: Jan 22, 2017 at 5:04:16 am

Latest Report: Jan 22, 2017 at 4:00 am


Visibility: N/A

Pressure: 30.51 "Hg

Humidity: 80%

Dew Point: 27 °F

Location of KrakówLocation

Past Weather in Kraków — Graph

°F

Kraków Temperature Yesterday

Maximum temperature yesterday: 34 °F (at 12:00 pm)
Minimum temperature yesterday: 28 °F (at 1:30 am)
Average temperature yesterday: 32 °F

High & Low Weather Summary for the Past Weeks

 TemperatureHumidityPressure
High43 °F (Jan 13, 12:00 pm)100% (Jan 15, 8:30 am)30.69 "Hg (Jan 15, 8:30 am)
Low-11 °F (Jan 7, 8:30 am)49% (Jan 9, 2:00 pm)29.36 "Hg (Jan 13, 11:00 am)
Average21 °F80%30.18 "Hg
* Reported Jan 7 4:00 am — Jan 22 4:00 am, Kraków, Weather by CustomWeather, © 2017

Note: Actual official high and low records may vary slightly from our data, if they occured in-between our weather recording intervals... More about our weather records

Advertising

Kraków Weather History for the Previous 24 Hours

Scroll right to see more
 ConditionsComfort  
Time TempWeatherWind HumidityBarometerVisibility
4:00 am
Sun, Jan 22
32 °FOvercast.6 mph80%30.51 "HgN/A
3:30 am32 °FOvercast.5 mph80%30.51 "HgN/A
3:00 am32 °FOvercast.6 mph80%30.51 "HgN/A
2:30 am34 °FOvercast.5 mph75%30.51 "HgN/A
2:00 am32 °FOvercast.5 mph87%30.51 "HgN/A
1:30 am32 °FOvercast.5 mph80%30.51 "Hg4 mi
1:00 am32 °FOvercast.2 mph80%30.51 "Hg4 mi
12:30 am32 °FIce fog.2 mph80%30.51 "Hg3 mi
12:00 am32 °FOvercast.3 mph80%30.51 "Hg3 mi
11:30 pm
Sat, Jan 21
32 °FIce fog.3 mph80%30.51 "Hg2 mi
11:00 pm32 °FIce fog.5 mph75%30.51 "Hg2 mi
10:30 pm32 °FIce fog.3 mph75%30.51 "Hg2 mi
10:00 pm32 °FIce fog.2 mph75%30.51 "Hg2 mi
9:30 pm32 °FIce fog.1 mph75%30.51 "Hg1 mi
9:00 pm32 °FIce fog.No wind75%30.51 "Hg1 mi
8:30 pm32 °FIce fog.1 mph75%30.48 "Hg2 mi
8:00 pm32 °FIce fog.2 mph75%30.48 "Hg2 mi
7:30 pm32 °FIce fog.3 mph80%30.48 "Hg2 mi
7:00 pm32 °FIce fog.2 mph80%30.48 "Hg2 mi
6:30 pm32 °FIce fog.2 mph80%30.48 "Hg2 mi
6:00 pm32 °FIce fog.1 mph75%30.48 "Hg2 mi
5:30 pm32 °FIce fog.2 mph75%30.48 "Hg2 mi
5:00 pm32 °FIce fog.2 mph75%30.48 "Hg3 mi
4:30 pm32 °FIce fog.6 mph75%30.45 "Hg3 mi
4:00 pm34 °FFog.6 mph65%30.45 "Hg3 mi
3:30 pm34 °FPartly sunny.6 mph65%30.45 "Hg4 mi
3:00 pm34 °FScattered clouds.5 mph65%30.45 "Hg4 mi
2:30 pm34 °FPartly sunny.7 mph65%30.45 "Hg4 mi
2:00 pm34 °FOvercast.6 mph70%30.45 "Hg4 mi
1:30 pm34 °FOvercast.6 mph65%30.45 "Hg4 mi
1:00 pm34 °FPartly sunny.6 mph70%30.48 "Hg4 mi
12:30 pm34 °FPartly sunny.8 mph70%30.48 "Hg4 mi
12:00 pm34 °FScattered clouds.7 mph70%30.48 "Hg4 mi
11:30 am32 °FPassing clouds.6 mph69%30.48 "Hg4 mi
11:00 am32 °FPartly sunny.6 mph75%30.48 "Hg5 mi
10:30 am32 °FPartly sunny.6 mph80%30.51 "Hg4 mi
10:00 am32 °FPartly sunny.5 mph80%30.48 "Hg4 mi
9:30 am32 °FBroken clouds.7 mph75%30.48 "Hg4 mi
9:00 am30 °FPartly sunny.6 mph75%30.48 "Hg4 mi
8:30 am30 °FBroken clouds.5 mph75%30.48 "Hg4 mi
8:00 am30 °FPartly sunny.5 mph80%30.48 "Hg5 mi
7:30 am30 °FPartly sunny.2 mph80%30.48 "Hg5 mi
7:00 am32 °FPassing clouds.7 mph75%30.48 "Hg5 mi
6:30 am30 °FPartly cloudy.5 mph80%30.48 "Hg4 mi
6:00 am30 °FPassing clouds.6 mph80%30.45 "Hg5 mi
5:30 am30 °FPassing clouds.5 mph80%30.48 "Hg4 mi
5:00 am30 °FIce fog.6 mph86%30.45 "Hg3 mi
Weather by CustomWeather, © 2017

See weather overviewHow to use our weather pages